STARLINK-3786

operational
NORAD ID: 52263 Int'l Des: 2022-041 Owner: SPXS Country: US Constellation: starlink
LEOCIRCULAR

关于 STARLINK-3786

正在加载描述...

实时位置

正在加载3D地球...

即将过境

高度历史

Altitude vs Time

uPlot chart will show altitude changes over time

两行轨道根数

1 52263U 22041C 25251.15797441 -.00003178 00000-0 -18174-3 0 9995
2 52263 53.2169 208.5365 0001271 89.6032 270.5105 15.08827036186807
Epoch: Sep 8, 2025 • Age: 21 hours

当前状态

高度 540.0 km
速度 7.59 km/s
星下点 6.98°N, 145.88°W
发射日期 Apr 21, 2022
运行时间 3.3 years
类型 internet

技术详情

分类 Payload
质量 297.00 kg
干质量 275.00 kg
总质量 297.00 kg
长度 0.20 m
直径 2.80 m
跨度 9.00 m
形状 Box + pan
制造商 SPXS
平台类型 Starlink
阶段状态 In Orbit
所有者/国家 SPXS/US

大型星座

Loading constellations...